Regional Weather Roundup
Issued by NWS

Home | Current Version | Previous Version | Graphics & Text | Print | Product List | Glossary On
Versions: 1 2 3 4 5 6 7 8 9 10 11 12 13 14 15 16 17 18 19 20 21 22 23 24 25 26 27 28 29 30 31 32 33 34 35 36 37 38 39 40 41 42 43 44 45 46 47 48 49 50
257
ASUS44 KLIX 010710
RWRLA
LOUISIANA WEATHER ROUNDUP
NATIONAL WEATHER SERVICE NEW ORLEANS LA
200 AM CDT SAT NOV 01 2014

NOTE: "FAIR" INDICATES FEW OR NO CLOUDS BELOW 12,000 FEET WITH NO
      SIGNIFICANT WEATHER AND/OR OBSTRUCTIONS TO VISIBILITY.
      SKY/WX - SKY CONDITION AND SIGNIFICANT WEATHER.
      TMP - AIR TEMPERATURE.    DP   - DEWPOINT TEMPERATURE.
      RH  - RELATIVE HUMIDITY.  PRES - PRESSURE.
      HX  - HEAT INDEX.         WCI  - WIND CHILL INDEX.

*  THESE STATIONS ARE NOT NWS OR FAA STATIONS AND ARE NOT UNDER
   NWS QUALITY CONTROL.

LAZ040-048-061>063-065-066-069-010800-
SOUTHEAST LOUISIANA

CITY           SKY/WX    TMP DP  RH WIND       PRES   REMARKS
N.O. AUDUBON     N/A     57  38  48 MISG        N/A
N.O. INTL ARPT PTCLDY    56  40  55 N18G28    30.20S
N.O. LAKEFRONT CLEAR     57  41  55 N33       30.21R
N.O. DOWNTOWN* FAIR      55  36  47 N15G23    30.21R
SLIDELL        CLEAR     51  38  60 N14G24    30.20R
BATON ROUGE    CLEAR     51  41  68 VRB5      30.25R
BOOTHVILLE     CLEAR     58  42  55 N17G35    30.16R
BELLE CHASSE   CLEAR     56  37  49 N13G26    30.18S
BOGALUSA*        N/A     50  35  56 N10       30.25R
NEW ROADS*     FAIR      49  41  73 N8        30.27R
GONZALES*      FAIR      53  42  67 N10G21    30.23R
HAMMOND*       CLEAR     52  37  58 N10G20    30.25R
HOUMA*         CLEAR     54  42  64 N14G21    30.20R
PORT FOURCHON* NOT AVBL

$$

LAZ041-044-053-054-010800-
SOUTHWEST LOUISIANA

CITY           SKY/WX    TMP DP  RH WIND       PRES   REMARKS
LAKE CHARLES   CLEAR     55  45  68 NE12      30.24S
LAFAYETTE      CLEAR     53  44  71 N12       30.24S
PATTERSON      CLEAR     54  43  66 N13       30.24R
SALT POINT       N/A     55  45  68 N7        30.21R
NEW IBERIA     CLEAR     52  46  80 N9        30.24S
CHENAULT AIRPK CLEAR     53  46  75 N8G16     30.25R

$$

LAZ027-028-010800-
CENTRAL LOUISIANA

CITY           SKY/WX    TMP DP  RH WIND       PRES   REMARKS
FORT POLK      CLEAR     50  40  68 NE9       30.28R
ALEXANDRIA INT CLEAR     49  33  54 NE13      30.28S
ALEXANDRIA     CLEAR     48  38  68 CALM      30.31R

$$

LAZ001-002-010800-
NORTHWEST LOUISIANA

CITY           SKY/WX    TMP DP  RH WIND       PRES   REMARKS
SHREVEPORT     CLEAR     48  29  47 NE10      30.34R
BARKSDALE AFB  CLEAR     46  31  57 VRB5      30.35R
DTN SHREVEPORT CLEAR     46  29  51 NE7       30.35R

$$

LAZ014-016-010800-
NORTHEAST LOUISIANA

CITY           SKY/WX    TMP DP  RH WIND       PRES   REMARKS
MONROE         CLEAR     42  29  59 N6        30.35S
TALLULAH       CLEAR     43  27  53 NE10      30.32S

$$




USA.gov is the U.S. government's official web portal to all federal, state and local government web resources and services.